Starlink 5021

operational
NORAD ID: 53902 Int'l Des: 2022-119 Owner: SPXS Country: US Constellation: starlink
LEOCIRCULAR

Über Starlink 5021

Beschreibung wird geladen...

Live-Position

3D-Globus wird geladen...

Nächste Überflüge

Höhenverlauf

Altitude vs Time

uPlot chart will show altitude changes over time

Zweizeiliger Elementsatz

1 53902U 22119S 25302.82657707 -.00000635 00000-0 -21807-4 0 9996
2 53902 53.2164 141.3418 0001402 87.0220 273.0932 15.08837343172637
Epoch: 29. Okt. 2025 • Age: 40 hours

Aktueller Status

Höhe 540.9 km
Geschwindigkeit 7.60 km/s
Subsatellitenpunkt 30.56°N, 64.65°E
Startdatum 24. Sept. 2022
Alter 3 years
Typ internet

Technische Details

Klassifizierung Payload
Masse 305.00 kg
Trockenmasse 290.00 kg
Gesamtmasse 305.00 kg
Länge 0.20 m
Durchmesser 2.80 m
Spannweite 9.00 m
Form Box + pan
Hersteller SPXS
Bus-Typ Starlink
Phasenstatus In Orbit
Besitzer/Staat SPXS/US

Große Konstellationen

Loading constellations...